Theta_e
329 329 329 328 328 328 328 328 328 328 328 329 328 328 328 327 327 327 327 327 327 327 326 326 326 326 326 326 326 327 328 328 328 328 327 327 327 327 328 328 328 327 327 326 326 326 326 327 327 327 327 327 328 328 327 327 328 328 328 328 327 326 326 326 327 327 327 326 326 326 325 325 324 322 321 320 321 321 322 323 323 324 324 322 321
328 328 329 328 328 329 328 327 328 329 328 328 327 327 327 326 327 327 326 326 326 326 326 326 326 326 325 325 324 324 324 324 325 324 322 323 326 327 327 328 328 328 328 328 327 327 327 327 327 327 327 327 328 328 327 327 327 328 328 329 328 327 327 327 328 328 328 328 328 327 327 327 326 325 323 322 321 321 321 322 321 322 324 323 323
328 329 329 328 328 328 327 327 327 327 327 326 326 325 326 326 327 327 326 326 326 327 327 327 326 325 324 322 320 319 318 318 318 318 318 321 324 326 326 326 326 326 327 327 328 328 328 328 328 328 328 327 328 328 327 327 326 326 327 328 328 328 328 328 328 328 328 329 329 329 328 328 328 328 327 326 325 325 324 325 325 325 326 326 326
328 328 327 327 327 326 326 326 326 326 326 325 325 325 326 326 327 326 325 325 325 324 323 322 321 319 318 316 315 315 314 314 315 315 316 320 323 324 324 324 323 323 323 324 324 325 326 327 328 328 328 328 328 328 327 327 327 327 326 327 327 327 327 327 328 328 328 328 328 328 328 328 328 328 328 328 327 327 327 327 328 328 328 328 328
326 326 326 325 325 325 325 325 325 325 325 325 324 324 324 323 323 321 320 319 317 317 315 314 314 313 313 312 312 312 311 312 313 313 315 318 321 321 321 321 320 320 319 319 319 320 321 322 324 325 326 327 327 327 327 327 327 327 327 327 327 327 326 326 327 328 328 328 328 328 327 327 327 327 327 327 327 326 326 326 327 327 328 328 328
325 325 325 325 325 325 325 324 324 324 323 322 320 319 318 316 315 314 313 312 311 311 310 310 309 309 309 309 309 308 308 310 310 312 313 316 319 319 316 314 315 316 316 315 314 314 316 317 318 320 321 322 323 324 325 325 325 326 326 326 327 327 327 327 326 326 326 327 327 328 328 327 327 327 327 327 327 326 326 326 326 326 327 327 327
325 325 325 324 324 324 323 322 321 320 318 316 314 312 311 310 310 309 309 309 308 308 308 308 307 307 307 307 306 306 307 307 308 309 311 315 318 314 309 309 312 313 311 308 308 309 310 311 312 313 315 316 317 319 320 321 321 321 322 323 324 325 326 327 327 326 326 326 326 326 327 328 327 327 327 327 327 326 326 326 325 325 326 327 327
324 324 323 323 322 321 319 317 315 313 311 309 308 307 307 307 307 307 307 307 307 307 307 307 307 306 307 306 305 305 305 305 305 306 309 313 312 306 304 307 310 309 305 303 303 304 305 305 305 306 308 310 312 314 315 316 317 317 318 320 321 323 324 325 326 326 326 326 326 326 326 327 327 328 328 327 327 327 326 326 325 324 324 325 326
322 321 320 319 317 315 312 309 307 306 305 305 305 305 305 306 306 306 306 306 306 307 306 306 306 305 305 304 304 304 304 304 304 304 307 309 305 301 302 304 304 303 301 301 301 301 302 302 301 302 302 303 305 306 307 310 312 313 314 315 317 319 320 321 323 324 325 326 325 326 326 326 326 327 327 327 328 328 328 327 327 326 325 324 324
317 315 313 311 308 307 305 304 303 303 303 303 304 304 305 305 305 304 304 304 304 305 305 305 305 304 304 303 303 303 302 302 302 302 303 303 301 301 301 300 301 301 300 300 300 300 301 300 300 300 300 300 300 300 300 302 304 305 307 309 311 313 314 316 318 320 322 324 325 325 326 326 326 326 326 326 326 327 328 328 328 328 327 326 325
308 306 305 304 303 303 302 302 302 302 303 303 303 303 303 303 302 302 302 302 302 302 303 303 304 304 303 303 303 302 302 301 301 301 301 300 300 301 300 300 300 300 300 300 300 300 300 300 300 300 300 299 299 299 299 300 300 300 301 303 304 307 310 312 314 315 317 320 323 324 325 326 326 326 326 326 326 326 327 327 328 328 328 328 327
302 302 302 302 302 302 302 302 302 302 302 302 302 302 301 301 301 301 301 301 301 301 301 302 303 303 302 302 302 301 301 301 300 299 299 300 300 300 299 299 299 299 299 299 299 299 299 299 299 299 299 299 299 299 299 299 299 299 299 299 300 302 305 308 310 312 314 316 319 321 323 325 325 325 325 325 325 326 326 326 327 327 328 328 329
301 301 301 301 301 301 301 302 301 301 302 301 301 300 299 299 299 299 300 300 300 300 300 300 301 301 301 301 300 300 301 300 299 299 299 299 299 299 298 298 298 299 298 298 298 299 298 299 299 298 299 298 298 298 299 299 299 299 298 298 299 299 301 304 307 309 311 313 315 317 319 322 323 324 324 325 325 325 325 325 326 326 326 327 328
301 301 300 300 301 301 301 301 301 300 300 299 299 299 299 299 298 298 298 298 298 298 299 299 299 299 299 299 299 299 300 300 298 298 298 298 298 298 297 297 297 297 297 297 297 297 297 297 297 297 297 297 297 298 298 298 298 298 297 297 298 298 299 301 304 307 309 311 314 315 316 318 320 322 323 323 324 324 325 325 325 325 326 326 327
300 300 300 301 301 301 301 300 299 299 299 298 298 298 298 298 298 297 297 297 297 297 297 297 297 297 297 297 297 297 298 298 298 298 298 297 296 296 296 296 296 296 296 296 296 296 296 296 296 296 295 296 296 297 297 297 297 297 296 296 296 296 297 298 300 304 309 311 313 314 315 315 316 318 320 321 323 323 324 324 325 325 325 325 325
300 300 300 300 300 300 299 299 298 298 298 298 297 297 297 297 297 296 296 296 295 295 295 295 295 295 294 294 295 296 296 295 295 297 297 295 295 295 295 296 295 295 295 295 295 295 295 295 294 294 294 294 295 294 295 295 295 295 295 295 294 295 295 296 297 300 305 310 312 313 314 314 314 315 316 318 320 321 322 322 323 324 324 324 324
299 299 299 298 298 298 297 297 297 297 296 297 296 296 296 296 296 295 295 295 294 294 293 294 293 292 292 292 293 293 292 291 292 296 296 294 294 294 294 295 294 294 295 295 294 294 294 294 293 293 292 292 292 292 293 293 293 294 294 293 293 293 293 293 294 296 299 304 309 311 313 314 313 313 314 315 316 318 319 320 321 322 322 322 323
297 297 297 297 297 296 296 296 296 296 296 295 295 295 295 295 295 295 294 294 293 292 292 292 292 291 291 290 290 290 289 289 291 293 293 294 294 293 292 293 293 293 293 293 293 293 293 293 292 292 291 291 290 290 291 291 291 292 292 291 291 291 291 291 292 292 294 297 301 305 309 312 312 312 312 313 314 315 316 317 318 319 320 320 320
296 296 296 296 296 295 295 295 295 295 295 295 295 295 294 294 294 293 293 293 292 292 291 291 291 290 290 289 289 289 288 288 289 289 291 293 294 294 293 293 292 292 292 292 292 291 291 291 290 290 290 290 289 289 290 290 290 290 290 290 290 290 290 290 290 290 291 291 293 296 300 304 308 309 310 309 310 312 313 314 315 316 317 318 319
295 295 295 295 295 295 294 294 294 294 294 294 294 293 293 293 292 292 292 292 291 291 290 290 290 289 289 289 288 288 287 287 287 287 288 290 291 291 293 293 292 292 291 291 291 290 290 289 289 288 288 288 288 288 288 288 288 289 289 289 289 289 289 289 289 289 289 289 290 290 292 294 297 301 304 305 305 306 309 310 310 312 314 315 317
294 294 294 294 294 294 294 294 294 293 293 293 292 292 292 292 291 291 291 291 290 290 289 289 288 288 288 287 287 286 286 286 286 285 286 287 288 288 290 291 290 290 290 290 290 289 289 288 288 287 287 287 286 286 286 286 286 286 287 288 288 288 288 288 288 288 288 288 288 289 289 290 291 292 295 298 299 300 304 306 306 307 309 310 313
293 293 293 293 293 293 293 293 293 292 292 292 292 291 291 291 290 290 290 289 289 289 288 288 287 287 287 286 286 285 285 286 285 285 285 287 287 287 287 288 288 288 288 288 289 288 288 287 287 286 286 286 285 285 285 285 284 284 285 285 285 286 286 286 286 286 287 287 287 288 289 288 289 289 289 291 292 293 298 302 303 304 304 306 309
293 293 293 293 293 292 292 292 292 291 291 291 291 290 290 289 289 289 288 288 288 287 287 287 287 286 286 285 284 284 284 284 284 284 284 285 286 286 286 286 286 286 286 286 287 287 286 286 286 286 285 285 284 284 284 284 284 284 284 284 284 284 284 284 284 285 285 285 286 287 288 287 287 288 288 289 291 292 293 296 298 300 301 302 304
292 292 292 292 292 292 291 291 291 290 290 290 289 289 289 288 288 288 287 287 287 286 286 286 285 285 284 284 283 283 283 283 283 282 283 284 284 285 286 285 285 286 285 285 285 285 285 285 285 284 284 284 284 283 283 283 283 283 283 283 284 283 283 283 283 283 284 285 285 285 285 285 286 288 290 290 291 292 293 294 295 295 296 299 301
292 292 292 291 291 291 290 290 290 289 289 289 288 288 288 287 287 287 286 286 286 285 285 284 284 284 283 283 283 282 282 282 282 282 282 282 284 285 285 285 285 285 285 285 284 284 284 285 284 282 283 284 283 282 282 282 282 282 282 282 282 282 282 282 282 282 283 284 286 285 284 284 285 288 289 289 291 292 293 294 294 294 294 295 298
291 291 291 290 290 290 289 289 289 288 288 288 287 287 287 286 286 285 285 284 284 284 283 283 283 283 283 283 282 282 282 281 281 281 281 282 283 284 284 285 284 284 284 284 283 283 284 283 282 281 282 282 281 280 280 281 281 282 281 281 281 281 281 282 282 282 282 283 285 285 284 283 284 286 287 288 289 290 290 292 293 294 294 294 295
290 290 289 289 289 289 288 288 288 287 287 286 286 286 285 285 284 284 283 283 283 283 283 282 282 282 282 282 281 281 281 280 280 280 280 281 283 284 284 284 283 283 283 282 282 282 282 282 281 281 281 280 280 280 280 280 280 280 280 280 281 280 281 281 281 281 281 281 283 284 283 283 284 285 286 286 287 287 288 289 290 291 292 293 294
289 289 289 288 288 288 287 287 287 286 286 285 285 284 283 283 283 282 282 282 282 282 282 282 281 281 281 281 281 280 280 280 280 280 280 281 282 283 284 283 282 282 282 281 282 282 281 281 281 280 280 280 279 280 280 280 280 279 280 280 280 280 280 280 281 281 281 281 282 282 283 283 284 285 285 285 286 287 287 287 287 288 290 291 292
288 288 288 288 287 287 286 285 285 284 284 283 283 282 282 282 282 282 282 282 281 281 281 281 281 281 280 280 280 280 280 280 280 280 280 280 282 283 283 282 282 282 281 281 281 281 281 280 280 280 280 279 279 279 279 279 279 279 279 279 279 280 280 280 280 280 281 281 281 281 282 282 283 284 285 286 285 286 286 285 286 287 288 289 291
287 287 287 286 285 285 284 283 283 283 282 282 282 282 282 281 281 281 281 281 281 281 280 280 280 280 280 280 280 280 280 280 279 280 279 280 281 282 282 281 281 280 280 280 280 280 280 280 280 279 279 279 279 278 279 279 279 279 279 279 279 279 279 279 279 279 280 281 281 281 281 281 282 282 283 284 283 283 284 284 285 286 287 288 289
286 286 285 284 284 283 283 282 282 281 281 281 281 281 281 281 281 281 281 280 280 280 280 280 280 280 280 280 280 280 280 279 279 279 279 279 281 281 280 280 280 279 279 279 279 280 279 279 279 279 279 279 278 278 279 279 279 279 279 279 279 279 279 279 278 278 279 280 280 281 281 281 281 280 280 281 281 281 282 283 284 285 286 287 287
284 284 283 283 283 282 282 281 281 281 281 281 281 281 281 281 281 281 280 280 280 280 280 280 280 280 280 280 280 279 279 279 279 279 278 278 279 279 279 279 278 278 278 278 278 279 278 278 278 278 278 278 277 278 279 279 279 279 278 278 278 278 278 278 277 278 278 279 280 280 280 280 280 279 279 279 280 280 281 282 282 283 283 284 284
283 283 283 282 282 282 281 281 281 281 281 281 281 281 281 281 281 280 280 280 280 280 280 280 280 280 280 279 279 279 279 279 279 278 278 278 278 278 278 278 278 277 277 278 277 277 277 277 278 278 277 277 277 278 278 279 278 278 278 278 278 278 278 277 277 278 279 279 279 279 279 279 279 279 279 279 279 279 280 280 280 280 281 282 282
283 283 283 282 281 281 281 281 281 281 281 281 281 281 281 280 280 280 280 280 279 279 279 279 279 279 279 279 279 279 279 278 278 278 277 277 277 277 277 277 277 277 277 277 277 277 277 277 277 277 276 277 277 277 278 278 278 278 278 278 278 278 277 277 277 278 278 278 278 277 277 277 278 278 279 279 279 279 279 279 279 279 279 280 281
283 282 282 281 281 281 281 281 280 280 280 280 280 280 280 280 280 279 279 279 279 279 279 279 279 279 279 279 278 278 278 277 277 277 277 276 276 276 277 277 277 277 276 276 276 277 277 277 276 276 276 276 277 277 277 277 278 278 278 278 277 277 277 277 277 278 277 276 277 277 276 276 277 278 278 279 279 278 278 278 278 279 279 279 280
282 281 281 281 280 280 280 280 280 280 280 280 280 280 279 279 279 279 279 279 279 279 279 279 279 278 278 278 278 277 277 277 276 276 276 276 276 276 277 277 277 276 276 275 275 276 276 276 276 276 276 276 276 277 277 277 278 278 277 277 276 276 276 277 277 277 276 276 276 275 275 276 276 277 278 278 278 278 278 278 278 278 278 278 279
281 280 280 280 280 280 280 279 279 279 279 280 279 279 279 279 279 279 279 279 279 279 278 278 278 278 277 277 277 276 276 276 276 276 276 276 275 276 277 277 276 276 275 275 275 275 276 276 276 276 276 276 276 277 277 277 277 277 276 276 276 275 276 276 276 275 275 275 275 274 274 275 276 277 277 277 277 277 278 278 278 277 277 278 278
280 280 280 280 279 279 279 279 279 279 279 279 279 279 279 278 278 279 279 279 278 278 278 277 277 277 277 276 276 276 276 276 276 276 275 275 275 276 277 276 276 275 275 274 274 275 275 276 276 276 276 276 276 276 276 277 277 276 275 275 275 275 275 275 275 275 274 274 274 274 274 274 275 276 277 277 276 276 277 278 277 277 277 277 278
280 279 279 279 279 279 279 279 279 279 279 279 279 278 278 278 278 278 278 278 278 277 277 277 276 276 276 276 276 276 276 275 275 275 275 274 275 276 276 276 275 275 274 274 274 275 275 275 276 276 276 276 276 276 276 276 276 275 275 275 274 274 275 274 274 274 274 274 274 274 274 274 274 275 276 276 276 276 277 277 277 277 277 277 278
279 279 279 279 279 279 279 279 279 279 279 278 278 278 278 278 278 278 278 277 277 276 276 276 276 276 276 276 276 276 276 275 275 275 275 274 274 274 274 275 275 275 274 274 274 275 275 276 276 276 276 276 276 276 276 276 275 275 274 274 274 274 274 274 273 273 273 273 273 273 273 274 273 273 274 275 276 276 276 276 276 276 276 277 277
279 279 279 279 279 279 279 279 279 279 278 278 278 278 277 277 277 277 277 277 276 276 276 276 275 276 276 276 276 276 276 276 275 275 275 274 274 273 273 273 274 274 274 274 274 275 275 276 276 276 276 275 275 275 275 275 274 274 274 274 274 273 273 273 272 273 273 273 273 273 273 273 273 273 273 274 275 276 276 276 275 275 276 276 276
279 279 279 279 279 279 279 279 278 278 278 278 278 277 277 276 276 276 276 276 276 275 275 275 275 275 275 275 276 276 276 275 275 275 275 275 274 273 273 273 273 273 274 274 274 275 275 275 276 275 275 275 275 275 274 274 274 274 273 273 273 272 272 272 272 272 272 272 272 272 272 272 272 273 273 273 274 275 276 275 275 275 275 276 276
279 279 279 279 279 279 279 278 278 278 278 278 277 277 276 276 276 276 276 276 275 275 275 275 275 275 275 275 275 275 275 275 275 275 275 274 274 273 273 273 273 273 274 274 275 275 275 275 275 275 275 274 274 274 274 274 273 273 273 272 272 272 271 271 271 272 272 272 271 271 272 272 272 272 273 273 273 274 275 275 275 275 275 275 275
279 279 279 279 279 279 278 278 278 278 277 277 277 277 276 276 276 276 275 275 275 275 275 275 275 275 275 275 275 274 274 274 274 274 274 273 273 273 272 272 273 273 274 274 275 275 275 274 274 274 274 274 273 273 273 273 272 272 271 271 271 271 271 271 271 271 271 271 271 271 271 272 272 272 273 272 272 273 274 275 275 275 275 275 275
279 279 278 278 278 278 278 278 278 277 277 277 277 276 276 276 276 275 275 275 275 275 275 275 275 275 275 274 274 274 274 274 273 273 273 273 272 272 272 272 273 273 274 274 274 274 274 274 274 273 273 273 273 272 272 272 271 271 270 270 270 270 270 270 270 270 270 270 270 271 271 271 271 272 272 272 272 272 272 273 274 275 275 275 275
280 279 278 278 278 278 278 278 278 277 277 277 276 276 276 275 275 275 275 275 275 275 275 275 275 275 274 274 274 274 274 273 273 273 272 272 272 272 272 272 273 273 273 273 273 273 273 273 273 272 272 272 272 272 271 271 270 270 269 269 269 269 269 269 269 269 269 270 270 270 271 271 271 271 271 271 271 271 271 272 273 274 274 275 275
280 279 279 278 278 278 278 277 277 277 277 276 276 276 275 275 275 275 275 275 275 275 275 275 274 274 274 274 274 273 273 273 273 272 272 271 272 272 272 273 273 273 272 272 273 273 272 272 272 272 271 271 271 271 270 269 269 269 269 268 268 268 268 268 269 269 269 269 270 270 270 270 270 271 270 270 270 270 271 272 272 273 274 274 275
280 279 279 278 278 278 277 277 277 277 276 276 276 275 275 275 275 275 275 275 275 274 274 274 274 274 274 274 273 273 273 273 272 272 271 271 272 272 272 272 272 272 272 272 272 272 272 271 271 271 271 270 270 270 269 269 268 268 268 268 267 267 268 268 268 268 269 269 269 269 270 270 270 270 270 269 269 269 270 271 272 272 273 274 274
280 280 279 278 278 277 277 277 277 276 276 276 276 275 275 275 274 274 274 274 274 274 274 274 274 274 274 273 273 273 272 272 272 271 271 272 272 272 272 272 272 272 272 271 271 271 271 271 270 270 270 269 269 269 269 268 268 267 267 267 267 267 267 267 267 267 268 268 268 269 269 269 269 269 269 268 268 268 269 270 271 271 272 273 273
280 280 279 278 277 277 277 277 276 276 276 276 275 275 275 274 274 274 274 274 274 274 273 273 273 273 273 273 273 272 271 271 271 271 271 272 272 271 271 271 272 271 271 271 270 270 270 269 269 269 269 268 268 268 268 267 267 266 266 266 266 266 266 266 267 267 267 267 267 267 268 268 268 268 268 267 268 268 268 268 269 270 271 272 273
280 280 279 278 277 277 277 277 276 276 276 275 275 275 275 274 274 274 274 274 273 273 273 273 273 273 273 272 272 271 270 270 270 271 271 271 271 271 271 271 271 270 270 270 269 269 268 268 268 268 268 268 267 267 267 266 266 265 265 265 265 265 265 265 266 266 266 266 266 266 266 267 267 267 267 266 267 268 268 268 268 269 269 271 272
Wind_Speed
1 1 3 5 5 3 4 5 6 7 6 6 7 7 9 10 10 10 12 12 12 13 13 13 14 14 15 16 15 15 15 14 14 15 16 17 17 16 15 14 13 12 11 11 11 11 11 11 11 13 13 14 15 16 17 18 18 19 19 20 21 21 21 22 23 25 26 26 27 27 27 27 27 27 27 29 29 30 30 31 31 31 31 31 31
1 3 5 4 3 4 6 6 7 7 7 7 8 8 8 9 10 10 12 11 10 12 12 13 13 14 15 15 16 15 15 14 14 15 16 17 16 15 14 14 13 13 12 11 11 11 12 12 12 12 12 13 15 16 17 17 17 17 17 18 19 19 20 21 21 23 24 25 26 27 27 28 28 28 27 27 28 29 30 30 31 31 31 30 30
1 2 3 4 3 4 6 6 5 5 6 8 9 8 8 8 9 10 12 11 12 13 13 13 13 14 15 15 16 16 15 16 16 15 15 14 13 12 12 13 14 14 14 13 13 13 13 14 14 13 12 13 14 15 15 16 17 17 17 17 18 18 18 19 20 21 22 23 25 26 27 28 28 29 29 29 29 29 30 30 31 31 31 31 31
2 1 2 3 5 5 6 5 4 5 6 8 7 7 7 8 9 10 11 11 12 12 12 13 14 14 15 16 16 16 16 16 16 15 14 12 11 12 12 12 13 14 15 15 15 15 15 15 15 15 15 15 15 15 15 16 16 17 18 18 19 19 18 18 19 20 21 22 23 24 25 26 27 28 29 29 30 30 31 31 32 32 32 32 32
3 3 3 3 4 5 5 5 4 3 5 7 7 8 8 8 9 10 11 11 11 11 12 13 13 14 14 15 15 16 16 15 15 15 13 11 11 12 13 14 14 14 15 15 16 16 16 16 16 17 17 17 17 17 18 18 18 17 18 19 19 19 19 19 19 20 21 22 23 24 24 25 26 26 27 28 28 29 30 31 32 32 33 33 33
7 6 4 4 4 5 6 7 6 6 7 8 9 9 9 9 10 10 11 12 12 12 13 13 13 14 13 14 15 15 14 14 15 14 12 10 10 12 15 16 16 15 15 17 17 17 17 17 17 17 18 19 19 18 18 19 19 18 18 19 19 19 20 20 20 19 20 21 22 23 24 25 25 26 26 26 27 27 28 28 29 30 31 32 33
6 5 4 4 5 5 6 7 7 7 8 8 9 9 9 10 10 11 12 12 13 13 13 14 14 15 15 15 16 16 15 15 15 13 11 9 9 13 16 16 15 14 16 19 20 19 18 18 18 18 18 19 19 19 19 19 19 19 20 20 20 20 20 21 21 22 21 21 22 23 23 24 25 25 26 26 26 26 26 27 27 28 30 31 32
4 3 3 4 5 5 6 7 7 7 7 8 9 9 10 11 11 12 12 13 14 14 15 15 16 17 17 17 18 18 17 16 16 15 12 9 10 16 17 15 14 15 19 22 22 21 21 21 20 20 20 20 20 20 20 21 21 21 21 21 21 21 21 21 22 23 23 23 23 24 24 25 25 25 26 26 26 27 27 27 27 28 28 29 31
3 2 3 4 4 5 6 7 7 7 7 8 8 9 10 11 12 12 13 14 14 15 16 16 17 18 18 18 18 18 17 17 16 16 13 11 15 20 19 16 17 20 23 24 24 24 24 23 23 23 23 22 22 22 23 23 23 24 24 24 24 24 23 23 23 22 23 24 24 24 25 26 26 27 27 27 28 28 29 29 29 29 29 29 30
4 4 5 5 6 6 7 7 6 6 7 8 8 10 11 12 13 14 14 15 15 16 16 16 17 17 17 17 17 17 16 15 15 14 12 14 18 20 19 19 21 23 24 25 25 26 26 26 26 25 25 25 25 25 25 26 26 27 28 28 28 28 27 27 25 23 22 23 23 23 24 24 25 26 27 28 29 29 29 30 31 31 31 32 32
7 7 7 7 7 7 7 6 6 7 8 9 10 11 12 13 13 14 15 15 15 16 16 16 16 16 16 16 16 15 14 14 13 11 13 16 17 18 19 20 22 23 24 25 26 27 28 29 29 29 28 28 27 27 27 28 28 28 29 29 29 29 29 29 28 26 24 24 24 24 24 24 24 25 25 26 27 29 30 31 32 32 32 33 34
8 7 6 6 6 6 6 6 7 8 9 10 11 12 12 13 13 14 14 14 15 15 16 17 16 16 16 16 15 14 13 12 11 12 16 17 16 17 20 21 21 23 24 25 26 27 29 29 30 31 31 31 30 30 30 30 29 30 30 30 30 29 29 29 29 28 28 26 26 26 26 26 26 25 24 24 25 26 28 30 32 33 33 34 34
7 6 6 6 6 6 6 6 8 8 10 11 11 12 12 13 13 14 15 15 16 16 17 18 17 18 18 17 17 14 14 13 12 17 19 16 17 20 21 22 22 23 24 25 26 27 28 29 30 31 32 33 32 32 33 32 31 31 31 31 31 31 31 31 30 30 30 29 27 27 28 28 28 28 26 26 25 25 26 28 30 32 34 35 35
6 5 5 5 5 5 6 7 8 9 10 11 11 12 13 13 14 15 15 17 17 18 19 19 20 21 20 20 19 17 16 15 15 21 19 16 20 22 22 23 24 24 25 25 27 28 28 29 30 31 31 31 31 32 34 34 34 33 32 31 32 32 33 33 33 32 32 32 30 29 29 29 30 30 29 29 28 26 25 26 27 29 31 34 35
5 4 4 4 5 6 7 8 9 10 10 11 11 12 13 14 15 15 16 16 17 18 19 20 21 20 20 19 18 17 15 17 22 22 17 18 22 23 24 25 25 25 26 26 27 28 29 29 30 30 31 30 31 32 34 35 35 34 32 31 31 32 32 33 34 34 34 33 32 31 32 31 31 32 31 31 30 29 28 27 26 27 29 31 33
4 4 4 5 6 7 8 9 10 10 11 11 12 13 14 14 15 15 16 17 17 18 18 20 20 21 21 16 13 14 11 20 30 23 17 23 25 25 26 26 25 26 27 28 29 29 30 30 30 31 29 29 31 33 33 35 35 35 34 33 32 32 32 33 34 34 35 34 34 34 35 35 34 34 33 33 32 32 32 31 29 28 28 29 31
4 5 6 7 7 8 9 9 10 11 11 12 13 13 14 15 15 16 17 18 18 19 19 20 20 21 21 16 10 10 13 24 30 22 21 27 28 30 31 29 29 30 29 30 30 31 31 31 31 32 29 29 32 35 35 36 36 36 36 35 35 35 34 35 35 34 35 35 36 36 38 39 38 37 36 35 35 34 34 34 33 30 28 27 28
5 6 7 8 8 9 9 10 11 11 12 13 14 14 15 16 17 17 18 18 19 20 20 21 21 20 20 17 11 10 17 23 22 22 28 29 27 32 34 35 36 36 36 36 35 35 35 34 34 33 31 30 32 35 37 38 39 40 39 38 37 37 37 37 37 37 36 36 38 38 39 40 41 41 40 39 38 37 37 36 35 33 29 28 28
6 7 8 9 9 10 11 11 12 13 13 14 14 15 16 17 17 17 18 18 19 19 20 21 21 20 20 18 16 16 18 19 17 21 28 30 31 31 32 36 38 38 39 39 40 40 39 38 36 34 34 34 34 36 38 38 39 41 42 40 40 40 40 40 39 39 38 39 39 41 41 41 42 43 43 43 42 41 41 39 38 36 33 32 31
7 8 9 9 10 11 12 12 13 13 14 14 15 16 16 16 17 17 18 18 18 19 19 20 20 20 20 20 20 20 20 18 17 19 20 27 34 33 33 36 36 37 38 38 38 39 38 37 36 34 37 39 39 39 42 43 43 44 44 41 40 42 43 43 43 42 41 40 41 41 42 43 43 44 45 45 45 44 44 43 42 40 37 36 35
8 8 9 9 10 10 11 12 12 13 14 14 15 15 16 16 16 17 17 18 18 18 18 19 19 20 20 21 21 21 20 18 19 21 19 21 26 30 36 39 39 39 39 39 40 39 38 38 37 35 38 41 40 40 43 47 47 48 49 48 44 44 44 43 44 45 44 43 43 43 43 43 43 44 45 46 47 47 47 46 43 41 40 40 39
7 8 9 9 10 10 11 12 12 13 13 14 14 14 15 16 16 17 17 17 17 18 18 18 19 20 20 21 21 21 20 18 18 21 20 18 20 26 30 33 39 41 39 41 41 40 40 39 37 38 41 42 41 42 44 45 45 46 49 51 50 49 47 45 44 43 44 45 44 42 42 43 43 43 44 44 45 46 47 48 45 42 41 42 43
7 8 9 9 9 10 11 11 12 12 12 13 13 14 15 15 16 16 17 17 18 18 19 19 19 19 20 20 20 19 18 17 18 20 20 19 22 26 26 27 32 34 36 40 38 38 40 37 35 39 43 43 42 44 46 45 45 45 49 50 49 49 50 49 47 44 43 43 42 41 42 43 43 41 41 41 42 42 43 44 45 45 43 42 42
7 7 8 8 9 9 10 10 11 12 12 13 13 14 14 15 15 16 17 18 18 19 19 19 20 20 20 20 20 20 18 17 19 21 21 21 22 24 26 28 30 30 33 34 31 33 33 29 32 39 39 38 40 43 45 45 44 44 47 49 47 46 47 47 47 46 44 42 40 41 42 44 43 40 38 39 39 38 38 39 41 44 45 45 43
6 7 7 8 9 9 10 10 11 12 12 12 13 14 15 15 16 17 18 18 18 19 20 20 21 21 21 21 20 20 19 19 20 21 21 21 21 22 25 26 27 30 32 29 28 31 27 22 31 39 33 28 33 40 43 44 45 45 45 46 46 44 43 44 44 44 44 41 40 40 41 42 41 39 39 39 38 37 38 38 39 40 42 44 43
6 7 8 8 9 9 10 11 11 12 13 13 14 15 15 16 17 17 18 19 19 19 20 20 20 20 20 20 20 19 18 19 20 20 21 20 19 21 24 26 28 31 30 30 32 31 27 27 34 39 33 30 36 40 41 41 39 41 45 46 45 43 41 41 41 41 42 41 40 40 41 41 40 39 39 40 40 39 39 39 39 39 40 40 41
6 7 8 8 9 10 11 12 12 13 14 14 15 15 16 17 17 18 18 19 19 19 19 19 19 19 19 20 20 19 18 19 20 20 20 19 17 16 19 25 32 34 32 35 33 27 31 38 36 35 34 37 42 41 40 41 36 36 41 40 41 43 41 40 40 39 40 41 40 40 41 41 40 38 39 39 40 41 40 40 41 41 40 40 40
6 7 8 9 10 11 12 12 13 13 13 14 15 16 17 17 18 18 19 19 19 19 19 19 19 19 20 20 20 19 18 19 20 21 20 19 16 14 14 18 25 32 35 38 33 27 36 44 37 35 40 41 43 41 38 40 41 38 35 33 36 41 41 41 40 37 38 39 40 40 40 40 39 38 38 39 39 40 41 42 42 42 42 41 41
7 7 9 10 10 11 11 12 12 13 14 15 16 17 18 19 19 19 19 19 19 19 18 19 19 19 19 19 19 19 19 20 21 21 21 19 15 12 13 13 16 23 29 35 39 33 35 44 39 37 44 45 42 41 40 41 41 38 35 35 34 33 35 38 39 37 36 36 38 39 40 39 39 38 37 38 39 40 42 42 42 42 41 41 40
7 8 9 9 10 11 11 12 13 15 16 17 18 19 19 20 19 19 19 19 19 18 18 18 18 18 18 18 19 19 20 21 22 22 21 19 14 11 12 13 15 19 22 29 41 39 34 43 44 37 40 45 43 41 41 42 39 33 34 36 34 32 31 34 39 42 38 35 35 37 38 39 39 39 39 40 41 41 41 41 41 41 41 39 39
7 8 9 10 11 12 13 14 15 16 17 18 18 19 19 19 19 19 19 18 18 18 18 19 19 19 19 19 20 21 21 22 23 23 22 19 15 14 14 15 17 22 23 24 35 43 39 41 47 43 36 39 44 40 34 36 37 32 31 34 36 35 31 33 41 42 38 36 35 34 35 38 39 41 42 42 42 42 41 40 40 40 40 40 41
8 8 9 11 12 13 14 15 15 16 17 18 18 19 19 19 19 19 19 19 19 20 20 20 21 21 21 21 21 22 22 23 23 23 23 20 18 17 17 19 21 23 24 23 29 42 44 39 41 45 40 38 44 39 28 28 31 29 29 32 34 34 33 39 43 38 32 32 34 36 36 37 40 42 44 44 43 42 41 40 40 40 41 42 43
8 9 10 12 12 13 13 14 15 16 17 18 18 19 19 19 20 20 20 21 21 21 21 21 22 22 22 22 22 22 22 23 23 22 22 21 21 20 18 21 23 21 22 24 27 36 44 41 35 38 43 41 40 38 31 27 27 27 28 28 27 28 33 42 45 37 29 27 32 39 40 39 41 42 43 45 44 42 41 40 40 40 40 41 42
9 10 11 12 12 13 14 15 16 17 18 18 19 19 20 20 21 21 22 22 22 22 22 22 22 22 22 22 21 22 22 22 22 22 23 23 23 24 22 22 22 21 21 23 26 30 37 41 35 36 44 42 35 36 34 28 27 28 27 25 24 26 31 39 40 33 31 35 37 39 42 44 45 43 42 43 43 44 43 41 41 40 39 37 38
10 11 11 11 12 12 13 14 15 16 17 18 19 20 21 21 21 22 22 22 22 22 21 21 21 21 21 21 21 21 22 23 23 23 24 24 25 25 24 21 20 22 24 24 25 27 32 37 36 36 41 39 34 34 32 29 29 27 25 24 26 26 30 34 31 28 37 45 43 42 48 50 47 45 44 42 42 45 45 44 43 40 38 37 36
10 10 10 10 11 12 13 14 15 16 18 19 20 21 22 22 22 22 22 21 21 21 20 20 20 20 20 21 21 22 23 23 24 25 24 24 25 24 21 19 18 22 26 25 25 26 28 34 36 34 34 35 34 31 29 31 30 24 23 26 29 29 30 31 28 30 39 43 42 48 55 53 48 47 46 44 44 46 46 46 44 42 41 40 38
9 9 9 9 10 11 13 14 15 17 18 20 21 22 23 23 22 21 21 20 20 20 20 20 20 21 22 22 22 23 23 24 24 24 25 25 24 21 18 18 20 24 27 26 25 25 26 30 33 33 31 31 32 29 29 31 28 25 26 28 29 30 31 31 29 29 34 39 46 53 54 52 52 49 46 48 49 49 48 46 45 44 43 42 39
8 8 9 10 11 12 13 15 16 18 20 21 22 22 22 22 21 21 21 21 21 21 21 21 22 22 23 23 24 23 23 24 24 25 25 24 22 19 18 20 22 23 24 25 25 24 26 29 31 32 31 30 28 29 31 29 25 27 30 30 31 32 31 32 31 28 30 37 44 46 43 47 54 51 49 51 52 51 50 47 46 46 44 41 37
8 9 10 11 12 13 14 16 18 19 21 22 22 22 22 22 21 21 21 21 22 22 22 22 23 23 23 23 24 23 23 23 25 25 25 23 20 19 19 20 21 21 22 24 25 24 26 29 29 30 30 26 25 29 32 27 24 27 30 31 36 36 32 31 31 32 34 36 38 40 40 42 50 55 55 53 53 52 51 50 48 47 45 39 35
9 10 11 12 13 14 15 17 18 20 21 22 22 22 22 22 22 22 22 22 22 22 22 23 23 23 24 24 23 23 24 24 24 25 24 22 20 20 20 20 21 22 23 24 25 25 27 28 29 29 26 24 26 30 30 27 27 30 29 31 35 36 33 35 38 37 36 37 36 38 42 43 50 61 58 53 54 52 51 53 51 47 43 38 38
10 11 11 12 13 14 15 17 18 20 21 21 21 21 21 22 22 22 22 22 22 23 23 23 23 23 23 24 24 25 25 25 26 26 24 22 20 22 23 23 23 23 24 25 25 27 28 28 29 28 25 26 30 30 28 27 29 32 32 32 34 34 34 40 47 41 30 32 36 39 47 51 53 58 52 46 53 54 51 54 51 44 43 42 44
11 11 12 13 13 15 16 17 19 20 21 21 20 20 20 21 22 22 22 22 22 22 23 23 23 24 24 25 26 27 27 28 28 27 26 24 22 22 24 24 23 23 24 26 27 27 28 28 27 25 25 30 31 28 26 28 30 32 34 33 34 37 37 39 49 49 35 31 35 42 58 61 50 46 42 38 48 55 52 52 51 46 46 47 46
12 12 13 13 14 15 16 17 19 20 20 20 20 19 19 20 21 21 21 21 21 21 22 23 23 24 25 26 27 28 29 29 30 30 29 27 26 26 26 24 22 23 25 27 28 28 28 28 28 26 27 31 31 28 28 30 32 33 34 34 35 38 40 39 45 53 48 40 36 41 60 65 46 36 34 31 41 52 51 50 52 50 49 48 46
13 13 14 14 15 16 16 18 19 20 20 19 19 19 19 19 20 20 20 20 20 21 22 23 24 25 26 28 28 29 30 29 30 30 30 30 29 28 27 24 23 24 24 26 27 28 29 30 31 29 28 29 31 31 31 31 35 38 39 39 38 38 41 40 39 47 52 47 39 39 52 56 43 33 30 28 38 51 52 50 50 50 50 49 47
13 14 14 15 15 16 17 18 19 20 20 19 19 19 19 19 19 19 19 20 20 21 22 23 24 26 27 29 29 30 31 29 28 28 29 31 30 28 26 24 24 24 24 25 26 27 28 29 30 29 29 31 33 33 32 32 38 44 44 43 42 39 41 42 41 47 52 47 38 37 44 46 40 31 27 30 39 45 47 50 50 49 51 49 46
14 14 15 15 16 17 17 18 19 20 20 19 19 19 19 19 19 19 19 20 20 21 23 24 25 26 28 30 30 31 31 27 25 27 30 31 29 27 26 26 26 26 26 27 26 25 25 25 27 30 30 30 31 33 36 38 41 43 43 44 45 43 43 47 48 48 47 39 32 35 41 42 35 28 27 33 39 40 45 53 51 48 49 49 46
14 15 16 16 17 17 18 18 19 19 19 19 19 19 19 19 19 19 20 21 22 23 24 25 27 28 29 30 31 32 31 28 28 30 30 29 27 28 28 28 28 28 27 27 26 25 25 25 27 30 29 29 34 39 43 45 46 46 47 48 50 48 47 50 48 43 38 33 29 30 36 39 33 29 31 34 34 39 50 55 51 47 46 45 45
14 15 16 17 17 18 18 19 19 19 19 19 18 18 19 19 19 20 21 22 23 24 25 26 28 29 30 31 31 32 32 31 32 31 28 27 28 29 30 30 30 30 30 29 27 26 28 31 31 31 34 38 42 46 48 49 51 53 54 54 53 47 42 41 41 39 35 31 26 25 32 38 34 29 33 36 36 43 53 54 51 48 45 42 43
14 15 17 17 18 18 18 19 19 19 18 18 18 18 18 19 20 21 22 24 24 26 27 28 29 30 31 32 32 33 32 32 32 29 26 26 28 29 31 32 33 35 34 30 27 26 31 37 39 39 43 47 48 49 51 53 55 54 51 50 48 40 34 34 37 37 35 32 27 24 30 36 33 28 32 40 46 51 54 54 53 49 46 45 44
15 16 17 18 18 19 19 20 20 19 18 18 18 19 18 19 21 22 23 25 26 28 29 29 31 32 33 33 33 32 32 31 30 27 25 26 28 30 32 34 37 38 35 30 30 32 35 41 46 49 52 53 53 56 58 58 57 51 42 39 38 34 31 33 34 35 36 34 27 23 29 35 33 30 32 39 51 56 52 50 52 51 50 49 46
15 16 18 19 19 20 20 20 21 20 19 18 18 18 18 19 21 23 24 26 27 29 30 31 33 33 33 34 33 31 30 29 26 25 25 26 28 31 33 35 37 37 37 37 38 40 44 49 53 55 56 57 59 62 61 56 51 43 35 31 30 29 30 31 31 31 35 36 30 25 30 35 34 31 29 31 46 58 54 48 52 54 54 51 47
Wind_Direction
25 342 334 338 337 18 31 19 19 19 27 29 29 21 14 12 4 1 357 353 347 347 2 15 14 14 13 11 12 14 12 11 8 4 4 4 5 1 354 353 352 351 349 348 349 351 352 350 348 345 343 342 339 337 336 334 331 326 322 318 313 307 300 297 295 294 294 293 292 291 291 290 289 289 287 286 284 282 281 281 281 281 281 281 279
22 340 338 334 342 34 24 15 27 30 29 20 13 6 3 4 356 350 348 350 354 360 11 13 10 8 6 6 9 10 8 6 4 3 5 5 5 2 0 1 0 359 356 354 355 354 354 352 350 349 347 349 346 343 342 341 339 334 330 326 323 319 313 309 305 302 301 301 300 299 297 295 295 293 292 290 288 286 284 283 283 282 282 282 282
187 354 29 38 31 32 6 350 355 359 356 351 358 6 5 0 350 344 350 360 5 5 6 5 4 3 2 4 5 4 4 2 358 0 5 4 3 3 7 11 10 9 6 3 1 357 354 352 349 347 344 345 343 341 342 343 343 341 339 334 330 327 322 317 313 306 302 300 299 298 298 297 297 296 295 293 291 289 287 285 284 283 283 282 282
139 53 55 33 6 357 350 343 333 325 337 347 359 8 2 357 352 352 0 7 8 6 5 6 5 3 2 2 1 2 3 359 355 360 5 2 0 2 5 7 7 8 7 5 3 0 358 355 350 346 342 340 337 336 337 337 339 341 343 341 336 333 329 324 318 313 308 304 301 298 296 295 294 294 293 292 291 289 288 286 284 283 283 281 280
37 7 1 9 11 12 23 36 34 10 359 8 18 18 14 13 10 11 15 15 13 12 11 10 6 3 2 0 1 3 2 356 353 359 2 357 356 358 356 354 353 355 356 356 356 355 354 353 351 349 346 344 340 337 335 334 334 337 340 338 335 333 331 327 320 316 313 310 308 306 304 301 298 297 296 295 294 292 289 286 284 282 280 279 279
21 27 35 45 54 52 57 57 50 38 25 27 30 28 27 24 21 20 17 14 12 11 9 8 5 3 2 2 3 4 360 354 354 1 0 352 353 353 349 347 345 346 346 347 348 348 346 346 344 343 343 342 341 339 338 337 336 336 338 337 335 332 328 326 324 321 317 313 311 309 308 306 304 302 300 299 298 297 295 292 289 286 283 281 279
28 46 59 64 68 62 55 48 43 36 30 30 28 26 23 19 17 14 10 9 7 6 5 4 3 1 0 2 2 0 358 356 358 2 359 352 352 350 347 344 342 343 343 342 343 343 341 341 340 338 336 334 332 332 332 332 332 332 334 336 335 332 328 325 324 324 322 318 314 310 308 307 306 304 301 300 298 297 296 295 294 291 288 285 283
57 60 63 65 64 60 54 49 45 41 36 32 25 20 17 14 12 8 5 4 2 2 0 359 358 356 355 356 355 354 355 355 357 358 356 354 350 347 346 344 340 339 338 339 340 339 337 338 339 337 335 333 329 327 326 324 323 323 324 327 327 327 327 326 326 325 322 319 315 311 308 307 306 305 303 301 299 298 297 296 296 294 291 288 285
100 98 87 80 74 70 64 58 50 43 35 27 20 16 12 8 6 4 1 358 357 355 354 353 352 350 350 350 348 350 352 350 350 351 351 349 343 342 344 341 337 336 335 336 337 335 334 335 336 335 335 333 330 328 325 321 318 317 316 318 319 319 320 321 323 326 325 322 317 312 308 306 305 304 302 301 299 297 296 296 295 294 292 290 288
121 113 105 94 84 74 66 59 48 37 28 18 13 10 6 3 359 357 356 354 352 349 349 348 346 346 346 346 346 348 349 346 346 348 346 341 338 337 338 337 336 335 335 334 334 334 333 333 332 331 332 332 331 330 325 319 318 318 318 317 317 316 315 314 314 318 322 322 318 313 310 307 303 302 302 301 298 295 294 294 293 293 292 291 289
115 107 101 89 78 68 57 46 34 25 16 9 7 4 0 358 355 353 352 350 348 346 344 341 341 341 340 341 344 346 345 343 344 346 340 335 334 334 335 336 336 335 334 334 334 334 332 332 332 331 331 331 331 329 322 319 320 320 319 317 316 315 314 313 312 311 311 311 312 311 309 307 304 301 300 299 298 295 294 293 292 291 290 289 288
107 99 89 78 67 56 42 28 19 11 5 2 360 358 355 353 351 350 349 347 345 342 340 339 337 335 336 339 341 341 339 342 344 342 340 337 336 337 337 337 337 335 335 335 334 333 332 332 331 331 331 330 330 327 323 323 324 322 320 318 317 314 312 310 309 309 306 304 306 306 304 303 302 300 297 296 299 299 296 294 292 289 288 286 286
100 88 75 65 54 42 28 14 7 1 359 358 356 355 352 350 350 349 347 345 343 342 341 341 339 337 339 341 343 343 338 336 341 341 342 341 338 340 339 337 338 336 336 336 334 332 332 331 331 331 330 329 329 327 325 326 325 324 323 321 319 316 312 309 307 305 304 303 302 303 302 299 298 298 296 293 294 299 300 297 293 290 288 285 284
90 79 66 52 39 27 13 5 0 357 356 355 353 350 347 348 349 350 350 349 348 347 346 346 348 346 345 345 346 346 337 328 338 343 343 343 339 339 338 338 338 337 337 336 333 332 332 332 332 331 330 330 328 325 324 324 324 325 324 322 319 316 313 310 308 306 303 301 299 300 300 297 295 295 295 293 291 292 296 295 294 294 290 287 285
80 67 50 30 16 7 2 359 354 352 351 349 347 345 345 346 348 351 353 354 353 353 352 351 353 352 352 352 347 348 338 324 334 343 343 341 338 337 336 337 338 337 337 335 333 333 332 333 333 333 334 332 326 325 324 322 322 323 322 320 317 314 312 309 308 306 304 302 299 297 297 295 294 293 293 293 290 287 288 289 290 293 293 290 287
63 41 25 12 5 360 356 354 351 350 348 346 345 345 347 349 350 352 353 355 355 356 357 357 358 359 3 3 351 353 344 326 334 342 340 337 335 335 333 333 336 335 336 336 335 335 334 335 335 336 338 333 326 325 322 320 320 319 318 318 316 314 311 308 306 304 302 300 299 297 296 294 293 293 292 290 289 288 286 286 286 288 290 292 292
36 21 15 9 4 1 358 355 352 352 350 350 350 350 352 351 351 353 354 357 359 359 360 0 4 8 11 15 5 350 336 334 340 338 332 335 335 335 334 334 336 336 336 335 335 336 335 336 337 337 337 334 329 325 321 321 320 317 317 317 316 314 311 308 305 301 298 296 295 295 294 293 292 293 293 290 289 288 287 286 286 287 288 292 296
25 17 13 9 5 2 360 358 356 356 356 355 354 352 351 351 352 354 355 358 0 0 0 1 3 5 10 17 15 350 339 344 345 331 327 331 332 335 335 336 338 339 339 337 336 337 336 337 337 335 333 334 331 325 323 324 322 318 317 318 317 314 312 310 306 303 299 295 293 291 290 289 290 292 293 292 291 289 288 286 284 285 287 294 299
21 16 12 7 3 2 359 359 359 358 357 355 352 352 352 352 353 354 355 357 358 359 359 0 2 1 3 5 3 357 353 352 347 335 330 327 329 333 332 333 337 337 338 338 338 339 340 341 341 336 333 334 332 326 323 323 321 319 318 319 320 317 314 313 311 308 305 301 296 293 291 289 287 289 291 291 292 290 289 288 286 284 283 287 293
18 14 10 6 3 2 0 359 358 355 355 353 353 354 355 355 354 354 355 356 357 359 359 359 0 0 360 0 360 0 1 358 351 347 336 324 329 333 329 330 333 334 335 335 335 337 338 341 341 337 334 337 336 331 327 325 323 320 317 319 321 320 318 317 315 313 311 308 304 299 296 293 289 288 288 289 291 292 290 290 290 288 285 283 285
18 13 9 6 3 1 359 356 355 355 355 355 354 355 354 354 355 356 357 358 358 0 0 0 2 1 2 3 4 3 3 0 352 349 343 328 326 330 331 333 333 334 335 334 334 336 336 338 338 335 334 336 336 333 331 331 330 327 323 322 323 320 319 319 318 317 315 313 311 307 302 299 296 293 291 289 289 290 290 289 291 293 291 286 282
14 11 7 4 1 358 356 354 355 355 354 354 354 354 355 357 358 359 359 359 360 1 2 3 3 3 3 3 4 3 1 357 351 348 346 335 324 325 332 334 332 334 334 333 334 334 334 336 336 335 335 335 334 332 331 332 332 330 327 327 328 326 324 322 320 319 318 317 316 315 310 305 303 300 298 296 293 291 288 287 289 294 297 293 286
10 8 4 0 358 356 355 354 354 354 353 355 356 357 358 359 359 360 360 0 2 3 3 3 3 2 3 4 4 4 2 356 351 350 347 339 330 326 329 331 329 331 333 334 334 332 334 336 334 333 333 333 332 331 331 331 330 329 326 326 329 329 328 327 326 324 321 318 317 317 316 313 310 307 304 303 302 299 295 291 290 291 296 298 295
6 2 356 356 356 354 355 355 355 356 357 358 359 359 360 359 0 1 2 2 1 3 3 2 3 4 4 6 4 2 2 356 352 352 349 343 335 327 327 330 328 327 331 334 333 332 337 338 333 334 334 332 331 329 329 329 328 327 324 324 326 326 327 327 328 328 327 324 320 317 316 315 316 316 314 310 309 309 307 303 299 294 292 292 295
357 354 352 354 355 354 355 355 356 357 357 358 359 359 1 1 2 1 1 2 2 4 6 5 4 3 2 3 1 359 359 355 352 353 350 345 339 330 327 328 325 324 328 331 329 331 335 333 331 334 335 332 330 329 328 327 326 325 324 324 325 325 325 325 325 326 327 327 325 323 320 318 318 318 316 311 310 312 312 310 308 304 298 294 294
354 354 355 355 353 353 354 354 356 357 358 359 359 0 1 1 2 3 3 5 5 6 7 5 3 1 360 360 359 359 357 355 354 353 350 347 341 333 329 327 325 325 327 327 328 330 329 327 330 333 332 327 327 328 327 327 327 324 324 324 324 325 326 325 324 324 324 325 326 326 325 324 320 316 311 308 306 307 309 310 309 308 306 302 301
356 354 353 352 352 353 355 356 357 358 358 359 359 1 3 5 6 7 7 6 6 5 4 3 2 0 360 359 0 360 356 354 353 351 350 347 340 335 333 331 328 327 326 326 328 327 324 326 330 331 328 325 326 328 327 327 326 323 324 325 325 326 326 325 325 324 323 324 324 324 325 325 322 317 312 309 306 304 304 303 302 303 304 304 302
353 351 351 352 353 354 355 356 356 357 358 359 2 5 6 8 9 7 6 4 3 3 2 2 2 1 1 359 359 358 352 351 351 348 348 346 340 335 334 335 330 326 325 325 324 322 323 326 328 327 324 324 327 328 326 325 325 325 325 325 326 327 325 324 324 323 322 323 322 321 322 323 322 320 317 313 310 308 305 300 298 299 301 300 300
351 351 352 353 354 355 356 357 358 0 3 5 6 7 6 6 7 6 4 2 2 2 1 1 1 1 360 357 355 353 348 348 348 346 346 345 340 333 331 333 328 322 321 320 318 319 323 323 323 323 322 324 326 326 325 324 325 325 324 322 323 323 320 321 324 323 322 322 320 319 319 319 319 320 320 319 314 309 304 300 298 297 297 298 299
352 352 354 356 357 358 360 2 4 5 6 6 6 5 5 4 3 2 2 1 0 359 358 358 357 356 355 353 350 348 345 345 345 344 346 344 335 327 324 324 321 317 314 312 312 314 319 319 319 321 321 323 324 324 323 324 323 322 321 321 321 319 316 320 327 328 325 323 321 318 318 319 319 318 319 318 315 309 304 301 300 298 297 298 300
355 357 359 0 1 3 4 5 6 6 5 4 3 2 2 1 359 357 357 357 357 356 355 353 352 351 350 349 347 345 343 343 344 343 344 341 330 322 319 318 316 314 314 310 306 309 316 317 317 319 321 321 323 322 322 322 321 319 319 319 319 319 318 320 326 328 325 324 322 319 318 319 319 318 318 316 314 313 310 305 304 302 300 299 296
2 3 3 3 5 5 5 4 2 2 1 1 0 358 356 355 353 353 352 353 354 354 353 350 349 348 347 346 344 342 340 340 342 341 339 336 328 321 318 315 315 315 317 313 303 306 313 316 315 318 320 320 322 321 318 317 317 317 317 316 317 318 318 320 324 324 321 323 324 323 321 318 318 318 318 318 316 315 314 312 309 305 301 299 297
4 3 2 4 4 2 1 360 358 359 358 357 355 353 351 350 349 350 350 352 352 351 350 348 346 345 343 343 341 339 337 336 337 337 335 332 326 321 317 313 314 318 319 313 305 305 311 315 314 315 319 320 320 319 317 314 314 315 314 313 313 314 316 320 322 320 317 318 319 321 321 319 318 317 317 318 317 317 317 316 314 311 307 304 303
359 1 2 2 1 359 358 357 357 356 354 352 350 348 347 348 348 349 349 349 349 347 346 345 343 341 340 340 338 335 333 334 335 335 334 331 326 322 318 314 314 317 317 313 308 304 307 312 312 313 317 319 316 317 317 314 313 314 312 310 310 311 313 316 317 314 313 315 314 316 320 322 320 317 315 315 317 319 320 319 317 316 314 312 308
359 1 1 359 357 355 355 354 353 353 351 349 348 346 346 346 347 348 347 346 345 343 343 341 339 338 337 336 336 334 335 337 337 335 333 329 325 322 319 315 312 313 315 314 310 304 302 306 309 311 315 316 314 314 315 313 312 312 310 309 309 309 311 312 310 307 311 315 315 317 321 323 322 320 317 315 317 320 321 321 320 319 318 318 314
359 358 356 354 352 351 352 352 353 353 351 348 346 344 344 344 345 345 344 342 341 341 340 339 337 336 336 338 339 340 340 338 336 334 331 326 324 323 318 312 307 309 313 312 308 303 299 301 305 308 309 311 311 311 313 313 311 309 309 309 308 310 311 308 303 306 312 314 315 319 323 324 323 322 319 318 318 319 320 320 321 322 322 320 318
355 351 348 347 349 352 354 354 353 351 348 345 343 342 341 341 341 340 339 339 339 339 338 337 336 337 340 342 343 343 341 337 335 331 327 325 326 323 313 307 307 308 310 310 307 302 298 297 301 304 306 307 307 309 313 313 310 309 311 310 308 311 312 306 302 307 312 312 315 321 324 323 322 320 319 319 319 319 319 319 319 321 322 320 319
347 345 346 348 352 355 354 353 351 347 345 343 341 339 338 337 337 337 337 337 337 338 337 337 339 341 343 343 342 342 339 335 332 329 327 328 326 319 310 307 307 308 308 308 306 302 298 297 299 302 304 305 306 309 313 313 310 311 313 312 311 313 313 308 305 309 311 312 316 321 321 320 320 319 317 318 318 318 318 318 318 319 320 320 318
346 345 349 352 354 354 352 350 348 345 343 341 338 337 335 334 334 335 335 336 337 338 338 339 342 343 342 341 340 339 337 334 332 331 330 329 322 314 310 308 308 306 306 307 306 302 300 300 300 301 302 303 305 308 311 310 308 309 312 314 313 313 313 309 307 310 312 312 315 318 317 315 316 316 316 316 316 317 317 317 317 319 321 320 314
345 347 350 352 353 352 349 346 344 342 340 337 336 334 333 332 332 334 335 336 337 338 339 342 343 343 342 340 338 337 336 335 334 332 332 329 321 314 312 309 305 304 304 306 306 304 302 301 301 302 301 302 305 307 309 310 310 310 313 314 311 311 313 309 307 309 313 313 314 316 314 312 313 315 315 315 315 315 315 316 317 319 318 314 311
344 348 351 352 351 348 344 341 338 337 336 335 333 332 331 331 332 333 335 337 339 340 341 343 343 342 340 337 336 336 335 335 334 333 333 331 324 317 314 310 305 302 302 303 303 304 303 302 301 302 302 303 306 307 308 310 310 310 312 312 309 309 311 308 306 308 311 313 314 314 311 310 312 313 312 313 314 314 313 314 316 315 312 310 312
345 349 350 350 347 342 338 336 335 335 334 332 331 330 330 330 329 331 334 337 340 342 342 342 340 339 337 335 335 335 335 334 334 332 331 331 327 320 315 311 306 302 300 301 302 302 302 301 301 302 302 303 305 306 307 308 309 309 310 312 311 311 312 309 306 307 310 313 313 311 309 310 310 309 307 307 310 312 312 312 312 311 309 311 313
347 348 346 344 341 336 333 333 332 332 331 329 327 327 327 326 327 329 333 337 339 340 340 338 337 337 336 335 335 335 335 334 332 331 330 329 329 325 320 315 306 299 297 298 299 299 299 299 299 300 301 303 304 305 307 307 307 307 310 312 312 311 310 308 305 305 309 313 312 307 307 310 309 303 302 302 305 310 311 309 309 309 310 312 312
345 345 342 338 335 332 331 331 331 330 328 325 323 323 323 324 325 328 331 335 337 336 335 334 333 334 334 334 333 333 333 331 329 330 329 328 328 326 321 314 303 298 296 295 296 297 297 296 296 297 301 303 303 304 306 306 305 306 309 311 311 309 306 303 300 301 305 310 310 303 303 307 307 301 297 296 302 308 310 308 306 307 309 310 311
342 341 337 333 330 329 329 330 330 328 325 323 321 321 321 322 324 326 329 331 332 331 331 331 331 332 332 332 331 331 330 328 326 327 326 325 324 321 316 310 303 300 297 294 294 293 292 291 292 295 300 302 302 301 302 302 304 308 310 309 308 306 302 299 296 298 302 306 305 301 299 301 303 299 293 297 302 306 308 308 307 306 307 309 309
339 337 332 329 327 326 327 328 328 326 322 321 320 319 319 320 321 323 325 326 327 328 328 329 330 331 331 330 330 328 327 324 322 324 325 323 319 313 309 306 302 300 299 297 296 293 290 289 291 296 299 299 296 294 295 300 306 309 309 308 307 305 300 298 297 297 300 301 300 298 295 297 301 297 292 299 302 301 304 309 309 307 306 307 308
333 332 329 327 324 323 324 325 326 325 321 318 318 317 317 318 318 320 322 323 325 326 327 328 328 329 330 329 326 324 323 321 321 324 324 319 312 308 306 305 303 302 300 298 297 292 290 290 291 294 295 293 293 294 298 303 307 307 307 305 305 303 301 300 300 297 296 297 297 296 292 294 299 296 293 297 299 301 306 309 310 310 308 306 307
325 327 326 324 321 320 321 323 325 324 320 317 317 316 315 315 316 318 320 321 323 324 325 326 327 327 327 325 323 322 321 320 321 324 322 314 309 307 305 304 304 302 301 299 297 292 292 293 292 291 292 294 296 298 300 303 304 306 307 305 304 304 301 298 297 296 296 297 297 295 292 294 298 295 294 297 298 301 306 309 310 312 312 309 307
318 322 323 322 319 319 319 321 324 324 319 316 314 313 313 313 314 316 318 320 321 322 323 325 325 325 324 322 321 321 320 320 323 323 318 312 308 306 305 305 304 304 304 302 299 296 295 295 293 294 296 298 299 300 301 303 305 307 307 304 304 304 298 294 294 295 296 296 297 297 293 293 297 296 294 297 299 301 305 309 311 314 313 311 310
313 318 321 320 318 317 318 320 322 322 319 314 312 311 311 311 313 315 317 319 320 321 323 323 322 322 322 321 321 320 320 322 322 317 312 309 308 306 306 305 303 303 305 305 305 303 299 297 298 300 301 301 302 303 305 306 307 308 305 301 301 300 294 291 292 294 296 295 295 299 296 294 297 298 296 298 300 301 304 308 311 312 312 312 312
308 313 317 319 317 316 317 319 320 320 318 314 310 309 308 309 312 314 317 319 321 321 321 321 321 321 321 321 321 321 321 321 316 309 309 310 308 306 304 303 303 304 306 308 307 303 300 300 302 303 303 304 305 306 307 308 308 308 305 299 297 294 290 289 290 292 294 293 295 301 298 295 297 297 296 299 301 302 304 307 309 310 311 312 313